Change the Weather History Date:

Thursday, March 28, 2013

  Actual Average (EDQM) Record (EDQM)
Temperature  
Mean Temperature 27 °F -  
Max Temperature 33 °F 49 °F 60 °F (2012)
Min Temperature 21 °F 33 °F 21 °F (2002)
Degree Days  
Heating Degree Days 38    
Moisture  
Dew Point 22 °F    
Average Humidity 77    
Maximum Humidity 93    
Minimum Humidity 56    
Precipitation  
Precipitation 0.00 in - - ()
Sea Level Pressure  
Sea Level Pressure 29.74 in    
Wind  
Wind Speed 6 mph ()    
Max Wind Speed 13 mph    
Max Gust Speed -    
Visibility 4.5 miles    
Events Snow    
Averages and records for this station are not official NWS values.
T = Trace of Precipitation, MM = Missing Value Source: Averaged Metar Reports

Daily Weather History Graph

Daily Weather History Graph

Search for Another Location

Airport or City:

Trip Planner

Search our weather history database for the weather conditions in past years. The results will help you decide how hot, cold, wet, or windy it might be!

Date:

Astronomy

Mar. 28, 2013 Rise Set
Actual Time 5:53 AM CET 6:34 PM CET
Civil Twilight 5:20 AM CET 7:06 PM CET
Nautical Twilight 4:41 AM CET 7:46 PM CET
Astronomical Twilight 4:00 AM CET 8:27 PM CET
Moon 8:20 PM CET (3/28) 6:01 AM CET (3/28)
Length of Visible Light 13h 46m
Length of Day
12h 40m
Full, 99% of the Moon is Illuminated
Mar 28
Full
Apr 3
Last Quarter
Apr 10
New
Apr 18
First Quarter
Apr 25
Full

Hourly Weather History & Observations

Time (CET) Temp. Windchill Dew Point Humidity Pressure Visibility Wind Dir Wind Speed Gust Speed Precip Events Conditions
12:00 AM 23.0 °F 12.4 °F 19.4 °F 86% 29.80 in 6.2 mi East 10.4 mph - N/A   Mostly Cloudy
1:00 AM 23.0 °F 13.1 °F 19.4 °F 86% 29.80 in 6.2 mi ESE 9.2 mph - N/A   Mostly Cloudy
2:00 AM 23.0 °F 17.0 °F 19.4 °F 86% 29.77 in 5.0 mi ESE 4.6 mph - N/A   Mostly Cloudy
3:00 AM 23.0 °F 17.0 °F 19.4 °F 86% 29.77 in 4.3 mi ESE 4.6 mph - N/A   Mostly Cloudy
4:00 AM 21.2 °F 16.4 °F 19.4 °F 93% 29.77 in 3.7 mi ENE 3.5 mph - N/A   Mostly Cloudy
5:00 AM 23.0 °F 18.4 °F 19.4 °F 86% 29.77 in 5.0 mi East 3.5 mph - N/A   Mostly Cloudy
6:00 AM 23.0 °F 18.4 °F 19.4 °F 86% 29.77 in 3.1 mi ESE 3.5 mph - N/A Snow Light Snow
7:00 AM 24.8 °F 17.9 °F 21.2 °F 86% 29.77 in 2.5 mi East 5.8 mph - N/A Snow Light Snow
7:30 AM 24.8 °F 16.9 °F 21.2 °F 86% 29.77 in 2.2 mi East 6.9 mph - N/A Snow Light Snow
8:00 AM 24.8 °F 19.1 °F 21.2 °F 86% 29.77 in 1.4 mi East 4.6 mph - N/A Snow Light Snow
8:30 AM 24.8 °F 19.1 °F 21.2 °F 86% 29.77 in - ESE 4.6 mph - N/A Snow Light Snow
9:00 AM 24.8 °F 19.1 °F 21.2 °F 86% 29.77 in 1.9 mi East 4.6 mph - N/A Snow Light Snow
9:30 AM 24.8 °F 19.1 °F 21.2 °F 86% 29.77 in 2.2 mi ESE 4.6 mph - N/A Snow Light Snow
10:00 AM 26.6 °F 20.0 °F 21.2 °F 80% 29.77 in 2.5 mi East 5.8 mph - N/A Snow Light Snow
10:30 AM 28.4 °F 21.2 °F 21.2 °F 74% 29.77 in 4.3 mi East 6.9 mph - N/A Snow Light Snow
11:00 AM 26.6 °F 20.0 °F 21.2 °F 80% 29.77 in 3.7 mi ESE 5.8 mph - N/A Snow Light Snow
11:30 AM 28.4 °F 22.2 °F 21.2 °F 74% 29.77 in 3.7 mi East 5.8 mph - N/A Snow Light Snow
12:00 PM 28.4 °F 20.4 °F 23.0 °F 80% 29.77 in 5.0 mi East 8.1 mph - N/A   Mostly Cloudy
12:30 PM 28.4 °F 21.2 °F 21.2 °F 74% 29.77 in 6.2 mi East 6.9 mph - N/A   Mostly Cloudy
1:00 PM 32.0 °F 26.4 °F 21.2 °F 64% 29.74 in 6.2 mi East 5.8 mph - N/A   Mostly Cloudy
1:30 PM 33.8 °F 27.0 °F 19.4 °F 56% 29.74 in 6.2 mi East 8.1 mph - N/A   Mostly Cloudy
2:00 PM 32.0 °F 24.2 °F 21.2 °F 64% 29.74 in 6.2 mi East 9.2 mph - N/A   Mostly Cloudy
2:30 PM 32.0 °F 24.8 °F 19.4 °F 60% 29.74 in 6.2 mi East 8.1 mph - N/A   Mostly Cloudy
3:00 PM 33.8 °F 27.7 °F 19.4 °F 56% 29.74 in 6.2 mi Variable 6.9 mph - N/A   Mostly Cloudy
3:30 PM 33.8 °F 26.4 °F 21.2 °F 60% 29.74 in 6.2 mi East 9.2 mph - N/A   Scattered Clouds
4:00 PM 33.8 °F 26.4 °F 21.2 °F 60% 29.74 in 6.2 mi East 9.2 mph - N/A   Scattered Clouds
4:30 PM 33.8 °F 26.4 °F 21.2 °F 60% 29.71 in - East 9.2 mph - N/A   Clear
5:00 PM 32.0 °F 23.0 °F 21.2 °F 64% 29.71 in - East 11.5 mph - N/A   Clear
5:30 PM 30.2 °F 20.2 °F 23.0 °F 75% 29.71 in - East 12.7 mph - N/A   Clear
6:00 PM 30.2 °F 20.8 °F 23.0 °F 75% 29.71 in - East 11.5 mph - N/A   Clear
6:30 PM 30.2 °F 21.3 °F 23.0 °F 75% 29.71 in - East 10.4 mph - N/A   Clear
7:00 PM 30.2 °F 22.6 °F 23.0 °F 75% 29.71 in - East 8.1 mph - N/A   Clear
7:30 PM 30.2 °F 24.3 °F 23.0 °F 75% 29.71 in 6.2 mi ENE 5.8 mph - N/A   Partly Cloudy
8:00 PM 28.4 °F 24.6 °F 23.0 °F 80% 29.71 in 6.2 mi ENE 3.5 mph - N/A   Mostly Cloudy
9:00 PM 30.2 °F 25.4 °F 24.8 °F 80% 29.71 in 6.2 mi NE 4.6 mph - N/A   Mostly Cloudy
10:00 PM 30.2 °F 24.3 °F 24.8 °F 80% 29.68 in 5.0 mi East 5.8 mph - N/A Snow Light Snow
10:20 PM 30.2 °F 24.3 °F 24.8 °F 80% 29.68 in 2.5 mi ENE 5.8 mph - N/A Snow Light Snow
11:00 PM 28.4 °F 23.3 °F 24.8 °F 86% 29.68 in - NE 4.6 mph - N/A Snow Light Snow
11:32 PM 28.4 °F 22.2 °F 26.6 °F 93% 29.65 in 0.9 mi East 5.8 mph - N/A Snow Snow